Погода в Демянске

Погода в Демянске : погода сейчас, прогноз погоды и архив. Всё, что Вы хотите узнать о погоде в Демянске!

Поиск расширенной информации на нашем сайте:

Другие новости

Новости СМИ2

Главная страница сайта

Новости сайта

03.07.2017

Напоминаем, что на нашем специализированном сайте Метеоцентр.Азия вы можете получить высокодетализированные автоматические прогнозы погоды по пунктам России, СНГ и мира в авиационном формате (включающие направление и скорость ветра, видимость, явления погоды, количество и форму облачности, нижнюю и верхнюю границу облачности).

Рекомендуем: Печать наклеек с логотипом - распродажа наклейки с логотипом rpkactive.com.ua.

Погода в Демянске - сегодня

Время (UTC), дата Ветер
(°,м/с) 
Видим.   Явления Облачность Т
(°С)
Тd
(°С)
f(%) Тe
(°С)
Pmin
(гПа)
dP
(гПа)
Po
(мм)
O2
(г/м3)
Тmin Tmax R s Состояние
почвы
15 10.12.17 100 (В) 4000 м  слаб. ливневой снег  10/10 300 м кучево-дожд. 
[Cb calv]
+0.1 -0.7 94 +1  1002.5  -0.4  746  301         
18 10.12.17 тихо ()   4000 м  слаб. ливневой снег  10/10 300 м кучево-дожд. 
[Cb calv]
+0.1 -0.8 94 1002.5  0.1  746  301    +1.7     
21 10.12.17 тихо ()   4000 м  слаб. ливневой снег  10/10 300 м кучево-дожд. 
[Cb calv]
+0 -0.7 95 1002  -0.4  746  301           
00 11.12.17 тихо ()   4000 м  слаб. ливневой снег  10/10 300 м кучево-дожд. 
[Cb calv]
+0 -0.7 95 1001.6  -0.4  746  300           
03 11.12.17 тихо ()   4000 м  слаб. ливневой снег  10/10 300 м кучево-дожд. 
[Cb calv]
+0 -0.7 95 1000.6  -1  745  300  -0    10     
06 11.12.17 тихо ()   1000 м  слаб. ливневой снег [диам. отлож. мокр. снега 32 мм]  10/10 300 м кучево-дожд. 
[Cb calv]
+0 -0.7 95 1000.8  0.2  745  300  -0    равномерный
мокрый или
старый снег
100% 
09 11.12.17 тихо ()   1000 м  дымка{ливн. осадки}  10/10 300 м 
[St]
+0.1 -0.7 94 1001.9  1.1  746  300           
12 11.12.17 300 (СЗ) 20000 м  в посл. час ливневой снег  10/10 300 м кучево-дожд. 
[Cb calv]
-0.5 -1.2 95 -1  1002.9  746  301           
15 11.12.17 290 (З) 4000 м  слаб. снег  10/10 300 м 
[St]
-1.1 -1.9 94 -2  1004.7  1.7  748  303         
18 11.12.17 тихо ()   20000 м  {снег}  10/10 300 м 
[St]
-1.5 -2.4 94 -2  1006.9  2.2  749  304    +0.1     
21 11.12.17 тихо ()   20000 м    9/9 1000 м 
[Sc]
-1.9 -3.1 91 -2  1008.5  1.6  751  305           
00 12.12.17 тихо ()   20000 м    10/10 1000 м 
[Sc]
-2.9 -4.1 91 -3  1009.7  1.2  751  306           
03 12.12.17 150 (ЮВ) 20000 м    10/10 600 м 
[Sc]
-2.6 -3.8 91 -2  1009.2  -0.5  751  306  -3.7    0.0     
06 12.12.17 110 (В) 20000 м    10/10 1000 м 
[Sc]
-1.9 -3 92 -3  1008.2  -1  750  305  -3.7      10  равномерный
сухой снег
100% 
09 12.12.17 130 (ЮВ) 20000 м    10/10 1000 м 
[Sc]
-0.8 -2.3 90 -2  1007.5  -0.6  750  303           
12 12.12.17 140 (ЮВ) 20000 м    10/10 1000 м 
[Sc]
+0.2 -1.2 90 -2  1004  -3.4  747  301           
15 12.12.17 140 (ЮВ) 4{10}  20000 м  в посл. час ливневой дождь  10/10 300 м кучево-дожд. 
[Cb calv]
+1.4 -0.2 89 -1  1001.6  -2.4  746  299      0.5     
18 12.12.17 160 (Ю) 3{10}  4000 м  слаб. ливневой дождь  10/10 300 м кучево-дожд. 
[Cb calv]
+2.1 +0.5 89 +1  1000.1  -1.5  744  298    +2.2  0.5     
21 12.12.17 200 (Ю) 3{10}  4000 м  слаб. ливневой дождь  10/10 300 м кучево-дожд. 
[Cb calv]
+2.4 +1 90 +1  1000.6  0.5  745  297           
00 13.12.17 180 (Ю) 3{10}  20000 м  {ливн. осадки}  10/10 300 м кучево-дожд. 
[Cb calv]
+3.2 +1.6 89 +2  1000.6  0.5  745  296           
03 13.12.17 190 (Ю) 20000 м    9/9 1000 м 
[Sc]
+3.9 +1.8 86 +3  1000  -0.7  744  295  +1.4    0.4     
06 13.12.17 210 (ЮЗ) 4{10}  20000 м    10/10 300 м кучево-дожд. 
[Cb calv]
+4 -0.8 71 +2  1001.3  1.4  745  296  +2    0.4  равномерный
мокрый или
старый снег
100% 
09 13.12.17 230 (ЮЗ) 5-10{10}  20000 м    10/8 1000 м средняя 
[Sc|Ac As]
+3.6 -1.9 67 +1  1003.8  2.4  747  297           
12 13.12.17 230 (ЮЗ) 4{10}  4000 м  слаб. ливневой снег  10/8 300 м кучево-дожд., средняя 
[Cb calv|Ac As]
+2.2 -0.7 81 1006.3  2.5  749  299           
15 13.12.17 220 (ЮЗ) 20000 м  {ливн. осадки}  3/0 средняя 
[Ac trans]
-0.2 -1.5 91 -1  1009.3  2.8  751  303      0.9     
Время (UTC), дата Ветер
(°,м/с) 
Видим.   Явления Облачность Т
(°С)
Тd
(°С)
f(%) Тe
(°С)
Pmin
(гПа)
dP
(гПа)
Po
(мм)
O2
(г/м3)
Тmin Tmax R s Состояние
почвы

Для получения пояснительной информации подведите курсор к названию столбца.

ПОГОДА в Демянске - архив

Всё, что Вы хотите узнать о погоде в Демянске - удобно и подробно!

Выберите нужную дату (начиная с 1 января 2015* года) и нажмите кнопку "Найти".
Будут отображены архивные сводки погоды по пункту Демянск, начиная с указанной даты.


Отображать данные в формате CSV (для использования в таблицах Excel)


Внимание! Наш архив погоды предназначен исключительно для личного некоммерческого использования в познавательных целях. Если Вам необходимы официальные справки о состоянии погоды (для производственных, юридических, коммерческих и т.п. целей), обращайтесь в органы Росгидромета.

*Примечание: данная дата относится к архиву по метеостанциям СССР (Россия, СНГ, Балтия).
Архив по метеостанциям Зарубежной Европы и Азии (кроме Китая) хранится 10 дней, по другим регионам земного шара (Китай, Африка, Америка, Австралия, Океания) - 1 день.

Демянск - район местоположения метеостанции


Название, широта, долгота, высота метеостанции:
Демянск 57.6°ш. 32.5°д. 62 м над ур. моря [Российская Федерация]

Дополнительная информация

В oтличие oт бoльшинства пoгoдных сайтoв мы публикуем пoдрoбную метеoинфoрмацию в детальнoм прoфессиoнальнoм фoрмате.

Характеристики температуры и влажнoсти вoздуха измеряются на высoте 2 м в тени вдали oт зданий и деревьев.
Скoрoсть ветра измеряется на высoте 10 м (на урoвне рoста челoвека скoрoсть ветра ниже в 1.5-2 раза). Если метеoстанция нахoдится в гoрoде или в лесу, тo скoрoсть ветра занижена на 2-4 м/с пo сравнению с oткрытым местoм. Скoрoсть ветра над акватoриями крупных рек и oзёр, а также на вершинах хoлмoв на 2-5 м/с выше, чем в oбычных услoвиях.
Атмoсфернoе давление в разных тoчках местнoсти мoжет значительнo oтличаться oт давления на метеoстанции, в зависимoсти oт услoвий рельефа (при пoдъёме на 10 м давление пoнижается примернo на 1 мм рт.ст.).